Location: Kitchener-Waterloo
(43.4500°N, 80.5000°W)
Time: 05:18:22
(UTC-04:00)

ISS - All Passes

Search period start: 22 July 2014 00:00
Search period end: 01 August 2014 00:00
Orbit: 413 x 420 km, 51.6° (Epoch: 22 July)

Date Brightness Start Highest point End Pass type
(mag) Time Alt. Az. Time Alt. Az. Time Alt. Az.
22 Jul - 02:58:02 10° SSW 03:01:13 43° SE 03:04:26 10° ENE visible
22 Jul - 04:34:55 10° W 04:38:02 34° NNW 04:41:09 10° NE visible
22 Jul - 06:12:54 10° NW 06:15:27 20° N 06:18:01 10° NE daylight
22 Jul - 07:49:53 10° NW 07:52:56 30° NNE 07:55:58 10° E daylight
22 Jul - 09:26:31 10° WNW 09:29:50 55° SW 09:33:07 10° SE daylight
23 Jul - 02:10:01 10° SSW 02:12:50 25° SE 02:15:40 10° ENE visible
23 Jul - 03:46:09 10° WSW 03:49:25 48° NNW 03:52:42 10° NE visible
23 Jul - 05:24:06 10° WNW 05:26:44 21° N 05:29:22 10° NE visible
23 Jul - 07:01:25 10° NW 07:04:16 25° NNE 07:07:06 10° ENE daylight
23 Jul - 08:37:58 10° WNW 08:41:21 89° NNE 08:44:43 10° ESE daylight
23 Jul - 10:16:07 10° WSW 10:17:38 13° SW 10:19:08 10° SSW daylight
24 Jul - 01:22:27 10° S 01:24:30 15° SE 01:26:34 10° E visible
24 Jul - 02:57:31 10° WSW 03:00:52 74° NNW 03:04:14 10° NE visible
24 Jul - 04:35:15 10° WNW 04:38:01 23° NNW 04:40:48 10° NE visible
24 Jul - 06:12:53 10° NW 06:15:33 21° N 06:18:14 10° ENE daylight
24 Jul - 07:49:29 10° NW 07:52:49 56° NNE 07:56:08 10° ESE daylight
24 Jul - 09:26:42 10° W 09:29:19 21° SW 09:31:54 10° S daylight
25 Jul - 02:09:02 10° SW 02:12:21 68° SE 02:15:42 10° ENE visible
25 Jul - 03:46:23 10° WNW 03:49:20 28° NNW 03:52:18 10° NE visible
25 Jul - 05:24:15 10° NW 05:26:50 20° N 05:29:24 10° NE visible
25 Jul - 07:01:01 10° NW 07:04:13 39° NNE 07:07:24 10° E daylight
25 Jul - 08:37:50 10° WNW 08:40:56 35° SW 08:44:01 10° SSE daylight
26 Jul - 01:20:46 10° SSW 01:23:54 39° SE 01:27:05 10° ENE visible
26 Jul - 02:57:33 10° W 03:00:41 36° NNW 03:03:49 10° NE visible
26 Jul - 04:35:32 10° NW 04:38:05 20° N 04:40:39 10° NE visible
26 Jul - 06:12:34 10° NW 06:15:34 29° NNE 06:18:35 10° E daylight
26 Jul - 07:49:10 10° WNW 07:52:30 60° SW 07:55:48 10° SE daylight
27 Jul - 00:32:47 10° S 00:35:31 24° SE 00:38:16 10° E night (unlit)
27 Jul - 02:08:47 10° WSW 02:12:04 51° NNW 02:15:22 10° NE visible
27 Jul - 03:46:43 10° WNW 03:49:21 21° N 03:52:00 10° NE visible
27 Jul - 05:24:04 10° NW 05:26:53 24° NNE 05:29:42 10° ENE visible
27 Jul - 07:00:37 10° WNW 07:04:00 83° NNE 07:07:22 10° ESE daylight
27 Jul - 08:38:33 10° W 08:40:18 14° SW 08:42:04 10° SSW daylight
27 Jul - 23:45:19 10° SSE 23:47:10 14° SE 23:49:02 10° E night (unlit)
28 Jul - 01:20:09 10° WSW 01:23:30 79° NNW 01:26:52 10° NE visible
28 Jul - 02:57:50 10° WNW 03:00:38 24° NNW 03:03:26 10° NE visible
28 Jul - 04:35:30 10° NW 04:38:10 21° N 04:40:49 10° ENE visible
28 Jul - 06:12:07 10° NW 06:15:26 53° NNE 06:18:44 10° ESE daylight
28 Jul - 07:49:16 10° W 07:51:58 23° SW 07:54:40 10° S daylight
29 Jul - 00:31:41 10° SW 00:34:59 63° SE 00:38:19 10° ENE visible
29 Jul - 02:08:57 10° W 02:11:56 29° NNW 02:14:55 10° NE visible
29 Jul - 03:46:51 10° NW 03:49:25 20° N 03:51:59 10° NE visible
29 Jul - 05:23:39 10° NW 05:26:49 37° NNE 05:29:58 10° E visible
29 Jul - 07:00:25 10° WNW 07:03:34 38° SW 07:06:42 10° SSE daylight
29 Jul - 23:43:26 10° SSW 23:46:32 36° SE 23:49:39 10° ENE night (unlit)
30 Jul - 01:20:07 10° W 01:23:16 37° NNW 01:26:26 10° NE visible
30 Jul - 02:58:06 10° NW 03:00:40 20° N 03:03:14 10° NE visible
30 Jul - 04:35:10 10° NW 04:38:09 28° NNE 04:41:07 10° E visible
30 Jul - 06:11:46 10° WNW 06:15:06 65° SW 06:18:26 10° SE daylight
30 Jul - 22:55:30 10° S 22:58:07 22° SE 23:00:46 10° E night (unlit)
31 Jul - 00:31:21 10° WSW 00:34:38 54° NNW 00:37:57 10° NE visible
31 Jul - 02:09:15 10° WNW 02:11:54 21° N 02:14:34 10° NE visible
31 Jul - 03:46:39 10° NW 03:49:26 23° NNE 03:52:13 10° ENE visible
31 Jul - 05:23:12 10° NW 05:26:35 77° NNE 05:29:56 10° ESE visible
31 Jul - 07:00:57 10° W 07:02:55 15° SW 07:04:53 10° SSW daylight
31 Jul - 22:08:09 10° SSE 22:09:47 13° SE 22:11:25 10° ESE night (unlit)
31 Jul - 23:42:44 10° WSW 23:46:04 85° NNW 23:49:26 10° ENE night (unlit)
